Ellsworth AFB, SD

2:45 AM MDT on April 26, 2018 (GMT -0600)
Ellsworth Air Force Base

Weather History for KRCA - December, 2011

Change the Weather History Date:

Saturday, December 31, 2011

  Actual Average Record
Temperature  
Mean Temperature 40 °F -  
Max Temperature 51 °F 35 °F 59 °F (1997)
Min Temperature 28 °F 14 °F -15 °F (2017)
Degree Days  
Heating Degree Days 25    
Moisture  
Dew Point 33 °F    
Average Humidity 89    
Maximum Humidity 100    
Minimum Humidity 43    
Precipitation  
Precipitation 0.07 in - - ()
Sea Level Pressure  
Sea Level Pressure 29.72 in    
Wind  
Wind Speed 19 mph (NW)    
Max Wind Speed 34 mph    
Max Gust Speed 46 mph    
Visibility 9 miles    
Events Rain , Snow    
Averages and records for this station are not official NWS values.
T = Trace of Precipitation, MM = Missing Value Source: NWS Daily Summary

Daily Weather History Graph

Daily Weather History Graph

Search for Another Location

Airport or City:

Astronomy

Dec. 31, 2011 Rise Set
Actual Time 7:27 AM MST 4:23 PM MST
Civil Twilight 6:54 AM MST 4:56 PM MST
Nautical Twilight 6:17 AM MST 5:32 PM MST
Astronomical Twilight 5:42 AM MST 6:08 PM MST
Moon 10:57 AM MST (12/31) No Moon Set
Length of Visible Light 10h 01m
Length of Day
8h 55m
Waxing Crescent, 45% of the Moon is Illuminated
Dec 31
Waxing Crescent
Dec 31
First Quarter
Jan 9
Full
Jan 16
Last Quarter
Jan 23
New

Hourly Weather History & Observations

Time (MST) Temp. Windchill Dew Point Humidity Pressure Visibility Wind Dir Wind Speed Gust Speed Precip Events Conditions
12:55 AM 51.3 °F - 29.1 °F 43% 29.39 in 10.0 mi WNW 15.0 mph - N/A   Overcast
1:00 AM 50.0 °F - 30.2 °F 47% 29.40 in 10.0 mi NNW 20.7 mph 29.9 mph N/A   Mostly Cloudy
1:55 AM 40.5 °F 31.8 °F 29.7 °F 65% 29.44 in 10.0 mi NNW 17.3 mph - N/A   Clear
2:55 AM 41.9 °F 31.3 °F 33.4 °F 72% 29.49 in 10.0 mi NNW 28.8 mph 38.0 mph N/A   Clear
3:25 AM 39.2 °F 28.5 °F 35.6 °F 87% 29.52 in 10.0 mi NNW 24.2 mph 31.1 mph N/A   Mostly Cloudy
3:35 AM 39.2 °F 28.7 °F 35.6 °F 87% 29.51 in 10.0 mi NNW 23.0 mph 33.4 mph N/A   Overcast
3:53 AM 39.2 °F 29.3 °F 35.6 °F 87% 29.54 in 10.0 mi NNW 20.7 mph 29.9 mph N/A   Overcast
3:55 AM 38.7 °F 27.8 °F 35.1 °F 87% 29.54 in 10.0 mi NNW 24.2 mph 29.9 mph N/A   Overcast
4:06 AM 37.4 °F 27.2 °F 35.6 °F 93% 29.55 in 10.0 mi NNW 19.6 mph 27.6 mph N/A   Overcast
4:24 AM 37.4 °F 28.2 °F 35.6 °F 93% 29.56 in 7.0 mi NNW 16.1 mph - N/A Rain Light Rain
4:34 AM 37.4 °F 27.8 °F 35.6 °F 93% 29.57 in 6.0 mi NW 17.3 mph - N/A Rain Light Rain
4:37 AM 37.4 °F 28.2 °F 35.6 °F 93% 29.57 in 6.0 mi NW 16.1 mph - N/A Rain Light Rain
4:39 AM 35.6 °F 25.9 °F 35.6 °F 100% 29.56 in 6.0 mi NNW 16.1 mph - N/A Rain Light Rain
4:40 AM 35.6 °F 26.2 °F 35.6 °F 100% 29.56 in 6.0 mi NNW 15.0 mph - N/A Rain Light Rain
4:43 AM 35.6 °F 26.2 °F 35.6 °F 100% 29.55 in 6.0 mi NNW 15.0 mph - N/A Rain Light Rain
4:54 AM 35.6 °F 25.9 °F 35.6 °F 100% 29.55 in 8.0 mi NW 16.1 mph - N/A Rain Light Rain
4:55 AM 36.1 °F 26.9 °F 35.6 °F 98% 29.55 in 8.0 mi NNW 15.0 mph - 0.00 in Rain Light Rain
5:01 AM 35.6 °F 26.2 °F 35.6 °F 100% 29.57 in 10.0 mi NW 15.0 mph - N/A Rain Light Rain
5:02 AM 35.6 °F 26.6 °F 35.6 °F 100% 29.57 in 10.0 mi NW 13.8 mph - N/A Rain Light Rain
5:04 AM 35.6 °F 27.1 °F 35.6 °F 100% 29.57 in 10.0 mi NW 12.7 mph - N/A Rain Light Rain
5:09 AM 35.6 °F 27.5 °F 35.6 °F 100% 29.57 in 10.0 mi NNW 11.5 mph - N/A Rain Light Rain
5:13 AM 35.6 °F 27.1 °F 35.6 °F 100% 29.57 in 10.0 mi NW 12.7 mph - N/A   Light Drizzle
5:14 AM 35.6 °F 27.1 °F 35.6 °F 100% 29.57 in 10.0 mi NW 12.7 mph - N/A   Light Drizzle
5:15 AM 35.6 °F 27.1 °F 35.6 °F 100% 29.57 in 10.0 mi NW 12.7 mph - N/A   Light Drizzle
5:16 AM 35.6 °F 27.5 °F 35.6 °F 100% 29.57 in 10.0 mi NW 11.5 mph - N/A   Light Drizzle
5:20 AM 35.6 °F 28.0 °F 35.6 °F 100% 29.58 in 10.0 mi NW 10.4 mph - N/A   Light Drizzle
5:55 AM 35.4 °F 29.7 °F 35.1 °F 99% 29.58 in 10.0 mi NW 6.9 mph - 0.00 in   Light Drizzle
5:56 AM 35.6 °F 29.2 °F 35.6 °F 100% 29.58 in 10.0 mi NW 8.1 mph - N/A   Light Drizzle
5:58 AM 35.6 °F 29.9 °F 35.6 °F 100% 29.57 in 10.0 mi NW 6.9 mph - N/A   Light Drizzle
6:23 AM 35.6 °F 29.2 °F 35.6 °F 100% 29.60 in 10.0 mi WNW 8.1 mph - N/A   Light Drizzle
6:31 AM 35.6 °F 29.2 °F 35.6 °F 100% 29.60 in 10.0 mi NW 8.1 mph - N/A   Overcast
6:34 AM 35.6 °F 29.2 °F 35.6 °F 100% 29.60 in 10.0 mi WNW 8.1 mph - N/A   Light Drizzle
6:48 AM 35.6 °F 29.2 °F 35.6 °F 100% 29.62 in 10.0 mi NW 8.1 mph - N/A   Overcast
6:55 AM 35.6 °F 28.6 °F 35.4 °F 99% 29.62 in 10.0 mi NW 9.2 mph - 0.00 in   Overcast
7:08 AM 35.6 °F 28.6 °F 35.6 °F 100% 29.62 in 10.0 mi NW 9.2 mph - N/A   Light Drizzle
7:40 AM 37.4 °F 26.9 °F 37.4 °F 100% 29.65 in 10.0 mi NNW 20.7 mph - N/A Rain Light Rain
7:48 AM 37.4 °F 26.6 °F 35.6 °F 93% 29.67 in 10.0 mi NNW 21.9 mph 27.6 mph N/A Rain Light Rain
7:49 AM 37.4 °F 26.4 °F 35.6 °F 93% 29.67 in 10.0 mi NNW 23.0 mph 28.8 mph N/A Rain Light Rain
7:51 AM 37.4 °F 25.6 °F 35.6 °F 93% 29.67 in 10.0 mi NNW 26.5 mph 29.9 mph N/A Rain Light Rain
7:55 AM 36.7 °F 25.4 °F 35.1 °F 94% 29.68 in 8.0 mi NNW 23.0 mph 32.2 mph 0.02 in Rain Light Rain
8:02 AM 35.6 °F 24.2 °F 33.8 °F 93% 29.70 in 7.0 mi NNW 21.9 mph 32.2 mph N/A Rain Light Rain
8:09 AM 35.6 °F 24.0 °F 33.8 °F 93% 29.71 in 5.0 mi NNW 23.0 mph 31.1 mph N/A Rain Rain
8:16 AM 33.8 °F 20.5 °F 33.8 °F 100% 29.72 in 2.5 mi NNW 27.6 mph 35.7 mph N/A Snow Light Snow
8:20 AM 33.8 °F 21.0 °F 33.8 °F 100% 29.74 in 2.0 mi NNW 25.3 mph 35.7 mph N/A Rain Heavy Rain
8:22 AM 33.8 °F 20.5 °F 33.8 °F 100% 29.73 in 1.8 mi NNW 27.6 mph 35.7 mph N/A Rain Heavy Rain
8:24 AM 33.8 °F 20.5 °F 33.8 °F 100% 29.74 in 2.0 mi NNW 27.6 mph 35.7 mph N/A Rain Heavy Rain
8:27 AM 33.8 °F 20.8 °F 33.8 °F 100% 29.74 in 2.5 mi NNW 26.5 mph 35.7 mph N/A Rain Heavy Rain
8:28 AM 33.8 °F 20.5 °F 33.8 °F 100% 29.74 in 3.0 mi NNW 27.6 mph 35.7 mph N/A Rain Heavy Rain
8:35 AM 33.8 °F 20.5 °F 33.8 °F 100% 29.74 in 10.0 mi NNW 27.6 mph 35.7 mph N/A Rain Light Rain
8:39 AM 33.8 °F 21.0 °F 33.8 °F 100% 29.75 in 10.0 mi NNW 25.3 mph 35.7 mph N/A Rain Light Rain
8:53 AM 33.8 °F 19.6 °F 33.8 °F 100% 29.75 in 10.0 mi NNW 32.2 mph 44.9 mph N/A   Light Drizzle
8:55 AM 34.2 °F 20.6 °F 34.0 °F 99% 29.76 in 10.0 mi NNW 29.9 mph 44.9 mph 0.05 in   Light Drizzle
9:06 AM 33.8 °F 19.4 °F 33.8 °F 100% 29.77 in 10.0 mi NNW 33.4 mph 44.9 mph N/A   Mostly Cloudy
9:24 AM 33.8 °F 19.6 °F 33.8 °F 100% 29.79 in 10.0 mi NNW 32.2 mph 42.6 mph N/A Rain Light Rain
9:46 AM 35.6 °F 23.2 °F 33.8 °F 93% 29.81 in 10.0 mi NNW 26.5 mph 39.1 mph N/A   Overcast
9:55 AM 35.8 °F 23.7 °F 32.9 °F 89% 29.81 in 10.0 mi NNW 25.3 mph 40.3 mph 0.00 in   Overcast
10:55 AM 36.5 °F 23.5 °F 30.6 °F 79% 29.83 in 10.0 mi NNW 31.1 mph 40.3 mph N/A   Mostly Cloudy
11:55 AM 36.5 °F 23.1 °F 27.3 °F 69% 29.84 in 10.0 mi NW 33.4 mph 44.9 mph N/A   Overcast
12:55 PM 36.7 °F 23.6 °F 25.3 °F 64% 29.84 in 10.0 mi NW 32.2 mph 46.0 mph N/A   Mostly Cloudy
1:55 PM 36.5 °F 23.7 °F 24.6 °F 62% 29.93 in 10.0 mi NW 29.9 mph 42.6 mph N/A   Mostly Cloudy
2:55 PM 36.7 °F 23.2 °F 23.9 °F 60% 29.98 in 10.0 mi NNW 34.5 mph 40.3 mph N/A   Scattered Clouds
3:55 PM 36.1 °F 23.5 °F 23.7 °F 61% 30.06 in 10.0 mi NW 28.8 mph 41.4 mph N/A   Scattered Clouds
4:55 PM 34.3 °F 22.6 °F 23.7 °F 65% 30.13 in 10.0 mi NW 21.9 mph 32.2 mph N/A   Clear
5:55 PM 33.6 °F 22.6 °F 23.2 °F 66% 30.19 in 10.0 mi NNW 18.4 mph 25.3 mph N/A   Clear
6:55 PM 32.9 °F 21.3 °F 23.5 °F 68% 30.24 in 10.0 mi NW 19.6 mph - N/A   Clear
7:55 PM 33.6 °F 21.3 °F 22.5 °F 64% 30.27 in 10.0 mi NNW 23.0 mph - N/A   Clear
8:55 PM 32.4 °F 20.6 °F 20.8 °F 63% 30.29 in 10.0 mi NW 19.6 mph - N/A   Clear
9:55 PM 30.7 °F 20.9 °F 20.7 °F 66% 30.32 in 10.0 mi NW 12.7 mph - N/A   Scattered Clouds
10:55 PM 29.5 °F 18.8 °F 21.2 °F 71% 30.32 in 10.0 mi NNW 13.8 mph - N/A   Clear
11:55 PM 28.0 °F 19.3 °F 20.5 °F 73% 30.34 in 10.0 mi NW 9.2 mph - N/A   Partly Cloudy